Find Local Weather

World > North America > United States > Florida

Wmaf Radio Tower, Florida Regional Weather

Lat: 30.47N, Lon: 83.44W
Wx Zone: FLZ019
Feedback
Expires:201806232200;;004051
ASUS42 KTBW 232116
RWRFL 
FLORIDA REGIONAL WEATHER ROUNDUP
NATIONAL WEATHER SERVICE TAMPA BAY RUSKIN FL
500 PM EDT SAT JUN 23 2018

NOTE: "FAIR" INDICATES FEW OR NO CLOUDS BELOW 12,000 FEET WITH NO
SIGNIFICANT WEATHER AND/OR OBSTRUCTIONS TO VISIBILITY.


FLZ011-016>038-118-127-128-134-139-239-232200-
NORTH FLORIDA
  
CITY           SKY/WX    TMP DP  RH WIND       PRES   REMARKS
MARIANNA       FAIR      93  74  53 SW5       29.92F HX 103           
TALLAHASSEE    FAIR      93  70  46 NW5       29.93F HX  99           
PERRY          FAIR      92  76  58 SW12G17   29.96F HX 103           
LIVE OAK       SUNNY     93  73  52 W5        29.95F HX 102           
CROSS CITY     FAIR      91  76  62 W10       29.96F HX 103           
LAKE CITY      PTSUNNY   90  70  51 W3        29.95F HX  95           
GAINESVILLE    FAIR      94  68  42 W9        29.97F HX  98           
WILLISTON      SUNNY     97  75  49 SW9       29.96F HX 109           
PALATKA        LGT RAIN  82  77  83 SW7       29.96S                  
MAYPORT NAS    FAIR      91  76  61 SE10      29.94F HX 103           
JACKSONVILLE   FAIR      94  68  42 W9        29.93F HX  98           
JAX NAS        FAIR      94  70  45 W6        29.94F HX 100           
JAX CECIL      MOSUNNY   97 N/A N/A W7        29.94F                  
FERNANDINA BEA FAIR      94  68  42 W12       29.93F HX  99           
ST AUGUSTINE   FAIR      88  78  72 SE15      29.96S HX 101           
PALM COAST     MOSUNNY   88  77  70 SE12      29.97R HX 100           

STATION/POSITION SKY/WX   TEMP    WIND        PRES    WAVE   SWELL
                          AIR SEA DIR/SP/G            HT/PER HT/PER
                          (F)     (DEG/KT/KT) (MB)    (FT/S) (FT/S)
SHELL POINT      NOT AVBL
KEATON BEACH               85     250/ 15/ 17 1014.7F
CEDAR KEY                  87     280/ 10/ 12 1015.4F
FERNANDINA                 93 84  290/  5/  7 1014.8F
30.7N   81.3W                 84                N/A     1/ 8
MAYPORT                    92 84  270/  4/  7 1014.5F
31.4N   80.9W              85 85  170/ 10/ 12 1013.1F   1/ 4
ST AUGUSTINE               83 79  130/ 13/ 14 1015.0F

$$

SKY/WX - Weather  TMP - Temperature  DP - Dewpoint  RH - Relative Humidity
WIND - Wind Direction/Speed PRES - Barometric Pressure